Location: Amarillo Post Office Jordan Station
(35.1907°N, 101.9342°W)
Time: 18:01:48
(UTC+00:00)

Chandra Rocket (1) - Pass Details

Date: 24 January 2021
Orbit: 347 x 11000 km, 28.4° (Epoch: 01 March)

Event Time Altitude Azimuth Distance (km) Brightness Sun altitude
Exits shadow 12:45:02 14° 248° (WSW) 1,900 4.1 -13.8°
Maximum altitude 12:47:57 27° 195° (SSW) 941 3.0 -13.2°
Drops below altitude 10° 12:50:18 10° 131° (SE) 1,369 4.9 -12.7°
Sets 12:52:04 0° 116° (ESE) 2,129 6.7 -12.4°
